Location: Argonnex
(45.9500°N, 6.1333°E)
Time: 10:04:34
(UTC+00:00)

CZ-6A DEB - Pass Details

Date: 26 February 2024
Orbit: 827 x 907 km, 98.8° (Epoch: 12 April)

Event Time Altitude Azimuth Distance (km) Brightness Sun altitude
Rises 04:25:13 0° 27° (NNE) 3,440 ? -20.8°
Reaches altitude 10° 04:28:15 10° 43° (NE) 2,485 ? -20.3°
Maximum altitude 04:32:18 21° 91° (E) 1,823 ? -19.6°
Drops below altitude 10° 04:36:17 10° 139° (SE) 2,441 ? -18.9°
Sets 04:39:12 0° 155° (SSE) 3,362 ? -18.4°
